Location: Hobi?a Gr?di?te
(45.4833°N, 22.7833°E)
Time: 15:29:24
(UTC+00:00)

PSLV R/B - Visible Passes

Search period start: 30 September 2023 00:00
Search period end: 10 October 2023 00:00
Orbit: 484 x 543 km, 97.8° (Epoch: 30 September)

Date Brightness Start Highest point End Pass type
(mag) Time Alt. Az. Time Alt. Az. Time Alt. Az.
30 Sep 3.7 17:33:49 14° SSE 17:36:59 63° ENE 17:40:52 10° N visible
30 Sep 6.9 19:10:12 10° WSW 19:11:23 11° W 19:12:34 10° WNW visible
01 Oct 4.2 17:18:26 13° SE 17:21:37 41° ENE 17:25:19 10° N visible
01 Oct 6.5 18:53:25 11° SW 18:55:48 17° W 18:58:22 10° NW visible
02 Oct 4.7 17:03:02 11° SE 17:06:16 28° ENE 17:09:39 10° N visible
02 Oct 6.0 18:38:00 15° SW 18:40:13 24° W 18:43:28 10° NW visible
03 Oct 5.2 16:48:04 10° ESE 16:50:56 20° ENE 16:53:49 10° NNE visible
03 Oct 5.2 18:22:36 21° SSW 18:24:40 36° W 18:28:19 10° NNW visible
04 Oct 5.6 16:33:30 10° E 16:35:36 14° ENE 16:37:43 10° NNE visible
04 Oct 4.4 18:07:10 26° SSW 18:09:07 55° W 18:13:00 10° NNW visible
05 Oct 3.7 17:51:43 29° S 17:53:37 85° WSW 17:57:34 10° NNW visible
06 Oct 3.7 17:36:15 29° SE 17:38:06 63° ENE 17:42:00 10° N visible
06 Oct 6.9 19:11:15 10° WSW 19:12:29 11° W 19:13:44 10° WNW visible
07 Oct 4.2 17:20:45 24° SE 17:22:37 41° ENE 17:26:20 10° N visible
07 Oct 6.4 18:55:43 15° WSW 18:56:47 17° W 18:59:22 10° NW visible
08 Oct 4.7 17:05:15 19° ESE 17:07:09 28° ENE 17:10:33 10° N visible
08 Oct 5.9 18:40:13 22° WSW 18:41:05 24° W 18:44:21 10° NW visible
09 Oct 5.2 16:49:43 14° ESE 16:51:41 20° ENE 16:54:35 10° NNE visible
09 Oct 5.2 18:24:41 33° WSW 18:25:25 36° W 18:29:05 10° NNW visible
